Terminal Aerodrome Forecast
Issued by NWS Charleston, WV

Current Version | Previous Version | Graphics & Text | Print | Product List | Glossary On
Versions: 1 2 3 4 5 6 7 8 9 10 11 12 13 14 15 16 17 18 19 20 21 22 23 24 25 26 27
000
FTUS41 KRLX 031120
TAFEKN
TAF
KEKN 031120Z 0312/0412 VRB03KT 3SM BR SCT005 OVC050
     FM031300 14004KT 6SM BR BKN035
     FM031700 13005KT 5SM SHRA VCTS OVC030CB
     FM032000 12005KT 3SM TSRA OVC030CB
     FM032300 12005KT 5SM SHRA BR VCTS OVC025CB
     FM040300 VRB03KT 3SM SHRA BR OVC020
     FM040800 VRB03KT 2SM BR BKN015=

USA.gov is the U.S. government's official web portal to all federal, state and local government web resources and services.